Volver al catálogo

STARLINK-5362

ActivoComunicacionesVLEO
NORAD 55493·PAYLOAD·🇺🇸 United States

Lanzado Feb 2, 2023 desde Cape Canaveral Space Force Station

Loading…

Próximos Pases (próximas 24 horas)

TLE

ActualizadoSource: CelesTrak SupGP

Época: Sep 15, 2026, 01:43 UTC

1 55493C 23015AW  26258.07201389  .00002829  00000+0  10245-3 0  2583
2 55493  43.0024 350.0113 0001477 268.0522 357.6808 15.27577131    15

Sigue STARLINK-5362 en tiempo real con AllMySat

Download on the App Store